Terminal Aerodrome Forecast
Issued by NWS Omaha/Valley, NE

Home | Current Version | Previous Version | Graphics & Text | Print | Product List | Glossary On
Versions: 1 2 3 4 5 6 7 8 9 10 11 12 13 14 15 16 17 18 19 20 21 22 23 24 25 26 27 28 29 30 31 32 33 34 35 36
000
FTUS43 KOAX 181615 AAC
TAFOFK
TAF AMD
KOFK 181615Z 1816/1912 VRB05KT P6SM OVC015
      TEMPO 1816/1819 SCT015
     FM181900 16005KT P6SM SKC=

USA.gov is the U.S. government's official web portal to all federal, state and local government web resources and services.